Regional Weather Roundup
Issued by NWS

Home | Current Version | Previous Version | Graphics & Text | Print | Product List | Glossary On
Versions: 1 2 3 4 5 6 7 8 9 10 11 12 13 14 15 16 17 18 19 20 21 22 23 24 25 26 27 28 29 30 31 32 33 34 35 36 37 38 39 40 41 42 43 44 45 46 47 48 49 50
000
ASUS43 KBIS 291001
RWRND

NORTH DAKOTA REGIONAL WEATHER ROUNDUP
NATIONAL WEATHER SERVICE BISMARCK ND
400 AM CST THU JAN 29 2015

NOTE: "FAIR" INDICATES FEW OR NO CLOUDS BELOW 12,000 FEET WITH NO
SIGNIFICANT WEATHER AND/OR OBSTRUCTIONS TO VISIBILITY.


NDZ001>003-009>011-017-291100-
NORTHWEST NORTH DAKOTA

CITY           SKY/WX    TMP DP  RH WIND       PRES   REMARKS
WILLISTON      CLOUDY    27  20  75 NW10      30.41R WCI  17
MINOT          CLOUDY    23  17  78 NW20G28   30.34R WCI   8
MINOT AFB      CLOUDY    22  22  96 NW17      30.35R WCI   8
$$

NDZ018>021-031>035-040>046-291100-
SOUTHWEST NORTH DAKOTA

CITY           SKY/WX    TMP DP  RH WIND       PRES   REMARKS
BISMARCK       CLOUDY    30  25  81 N15       30.33R WCI  19
DICKINSON      CLOUDY    30  21  69 NW20      30.33R WCI  17
GARRISON         N/A     25  21  85 N22G30    30.34R WCI  10
HETTINGER ARPT MOCLDY    30  23  75 NW14      30.36R WCI  19
$$

NDZ004>008-012>016-024-026-027-054-291100-
NORTHEAST NORTH DAKOTA

CITY           SKY/WX    TMP DP  RH WIND       PRES   REMARKS
GRAND FORKS    CLOUDY    19  13  77 N18G33    30.27R WCI   4
GRND FRKS AFB  CLOUDY    20  13  77 N13G25    30.27R WCI   7
DEVILS LAKE    CLOUDY    21  18  86 NW22      30.26R WCI   5
$$

NDZ022-023-025-028>030-036>039-047>053-291100-
SOUTHEAST NORTH DAKOTA

CITY           SKY/WX    TMP DP  RH WIND       PRES   REMARKS
FARGO          FLURRIES  25  19  78 N25G36    30.22R WCI   9
JAMESTOWN      CLOUDY    26  21  81 NW21G28   30.24R WCI  12
$$




USA.gov is the U.S. government's official web portal to all federal, state and local government web resources and services.